默认 日期 大小 文件数 浏览量 最新下载 xml
4k movie磁力链接相关资源由用户搜索指令自动获取,结果来源于网络,本站不存储任何资料,亦不承担任何责任,请于24小时内删除,搜索到209个磁力,用时91ms。
    {"[AI-Raws] ヴァイオレット・エヴァーガーデン 外伝 - 永遠と自動手記人形 - (BD HEVC 2576x1080 yuv444p10le FLAC 日本語字幕)[DFB18CE8].mkv": 4843212497, "[AI-Raws] ヴァイオレット・エヴァーガーデン 外伝 - 永遠と自動手記人形 - 予告編 (BD HEVC 2576x1080 yuv444p10le FLAC 日本語字幕)[E746A2B4].mkv": 86208941, "[AI-Raws] ヴァイオレット・エヴ ...
创建时间: 2020-04-09 19:48:11 大小:15.66 GB 文件数量:3 热度:14 最近下载:2025-07-26 16:13:02
    ... .Shaun.The.Sheep.Movie.Farmageddon.2019.2160p.4K.BluRay.x265.10bit.AAC5 ... .Shaun.The.Sheep.Movie.Farmageddon.2019.2160p.4K.BluRay.x265.10bit.AAC5 ...
创建时间: 2020-07-01 03:28:54 大小:4.01 GB 文件数量:5 热度:6 最近下载:2025-08-29 21:19:04
    {"Interstellar (2014) IMAX Full Movie [English-DD5.1] 4k 2160p BluRay With Hindi PGS Subtitles.mkv": 5611717075}
创建时间: 2020-07-09 21:20:35 大小:5.23 GB 文件数量:1 热度:5 最近下载:2025-06-21 22:53:02
    ... }, "Star.Wars.The.Mandalorian.Movie.Part.2.4K.UHD.10bit HDR.DTS7 ... .Wars.The.Mandalorian.Movie.Part.I-2.4K.UHD.10bit HDR.DTS7 ... , "Star.Wars.The.Mandalorian.Movie.Part.I.4K.UHD.10bit HDR.DTS7 ...
创建时间: 2020-08-18 19:43:06 大小:20.32 GB 文件数量:31 热度:11 最近下载:2025-04-29 04:37:02
    ... ": 77290, "The.Angry.Birds.Movie.2016.R6.4K.2160p.WEB-DL.x264 ...
创建时间: 2020-08-24 14:59:51 大小:4.36 GB 文件数量:5 热度:8 最近下载:2025-10-16 04:55:02
    ... ": 45, "INCISION MOVIE 4K Official Trailer (2020).mkv": 85524277, "INCISION MOVIE 4K Official Trailer ... .mkv_20201023_134402.995.jpg": 304547, "INCISION MOVIE 4K Official Trailer (2020) - YouTube.mkv_20201023_134421 ...
创建时间: 2020-10-23 13:59:38 大小:82.99 MB 文件数量:6 热度:9 最近下载:2023-04-22 07:00:11
    {"[HR] The SpongeBob Movie - Sponge on the Run (2020). ... ": 3289897607, "[Hakata Ramen] The SpongeBob Movie Sponge on the Run (2020 ... ] The SpongeBob Movie Sponge on the Run (2020) [Netflix 4K to 1080p ...
创建时间: 2020-11-14 16:14:16 大小:3.06 GB 文件数量:3 热度:14 最近下载:2025-08-12 00:46:01
    {"SubThai": {"BD.PGS": {"SubThai.BD.sup": 11287137}, "IDX for Zidoo": {"SubThai.BD_exp.idx": 40393, "SubThai.BD_exp.sub": 4208640}}, "Mad Max Fury Road 2015 TW ULTRAHD Blu-ray 2160p HEVC Atmos TrueHD 7.1-TTG.iso": 58058473472}
创建时间: 2020-12-14 05:26:27 大小:54.09 GB 文件数量:4 热度:19 最近下载:2025-09-19 08:18:06
    {"[AI-Raws] ヱヴァンゲリヲン新劇場版:Q AR台本(3.33ver.).rar": 14695133, "[AI-Raws] ヱヴァンゲリヲン新劇場版:序 AR台本(1.11ver.).rar": 17573710, "[AI-Raws] ヱヴァンゲリヲン新劇場版:破 AR台本(2.22ver.).rar": 21705689, "[AI-Raws] ヱヴァンゲリヲン新劇場版:破 Omit Scene (BD HEVC 1920x1080 FLAC)[0FE50D2B].mkv": ...
创建时间: 2021-02-10 16:57:27 大小:54.19 GB 文件数量:22 热度:19 最近下载:2025-10-15 04:31:02
    {"[紧急救命4K.Code Blue the Movie 2018字幕]00004_T5_Subtitle - Chinese(繁).sup": 26749979, "紧急救命中文字幕日本电影4K.Code.Blue.the.Movie.2018.JPN.2160p.UHD.Blu-ray.HEVC.DTS-HD.MA.5.1-Hao4K.iso": 100103356416}
创建时间: 2021-02-26 22:05:52 大小:93.25 GB 文件数量:2 热度:131 最近下载:2025-10-14 20:59:03
    {"Sergeant Keroro - The Super Movie (4K ESRGAN).mkv": 7536903550, "Sergeant Keroro - ... arimasu! (ESRGAN 4K).mkv": 5199728335, "Sergeant Keroro - The Super Movie 4 - Gekishin ... arimasu! (ESRGAN 4K).mkv": 6815838095, "Sergeant Keroro - The Super Movie 5 - ...
创建时间: 2021-06-29 08:58:18 大小:28.56 GB 文件数量:5 热度:6 最近下载:2025-02-06 03:08:10
    {"1.The Avengers (2012) [2160p] [4K] [BluRay] [5.1] [YTS.MX]": ... 408983, "Avengers.Endgame.2019.2160p.4K.BluRay.x265.10bit.AAC5.1 ... 5651114314, "Avengers.Endgame.2019.2160p.4K.BluRay.x265.10bit.AAC5.1 ... {"Avengers.Infinity.War.2018.2160p.4K.BluRay.x265.10bit.AAC5.1 ...
创建时间: 2021-07-30 12:36:08 大小:34.02 GB 文件数量:7 热度:6 最近下载:2025-01-03 20:20:02
    {"www.YTS.MX.jpg": 53226, "YIFYStatus.com.txt": 358, "PAW.Patrol.The.Movie.2021.2160p.4K.WEB.x265.10bit.HDR.AAC5.1-[YTS.MX].mkv": 4120050383}
创建时间: 2021-08-26 18:14:00 大小:3.84 GB 文件数量:3 热度:14 最近下载:2025-08-01 21:49:14
    {"Avengers[2019] -Endgame[4K][UHD][HDR][BluRay][HEVC10bits ... , "Avengers[2012] -The Avengers[4K][UHD][HDR][BluRay][HEVC10bits].mkv ... , "Avengers[2018] -Infinity War[4K][UHD][HDR][BluRay][HEVC10bits].mkv ... [2015] -Age of Ultron[4K][UHD][HDR][BluRay][HEVC10bits].mkv ...
创建时间: 2021-10-14 15:58:08 大小:30.18 GB 文件数量:4 热度:6 最近下载:2025-02-02 04:37:01
    {"Mobile Suit Gundam I (1981).mkv": 89828163153, "Mobile Suit Gundam II Soldiers of Sorrow (1981).mkv": 86234570405, "Mobile Suit Gundam III Encounters in Space (1982).mkv": 90709074519}
创建时间: 2021-10-16 10:04:29 大小:248.45 GB 文件数量:3 热度:11 最近下载:2025-02-06 06:36:08
    {"[CookieSubs] Violet Evergarden - The Movie (2020) (BD 4K HDR10 TrueHD).mkv": 8837828550}
创建时间: 2021-10-16 15:58:11 大小:8.23 GB 文件数量:1 热度:24 最近下载:2025-07-25 05:43:01
    {"BDMV": {"META": {"DL": {"bdmt_jpn.xml": 558, "violet_240.jpg": 74506, "violet_640.jpg": 148095}}, "BACKUP": {"CLIPINF": {"00000.clpi": 129056, "00001.clpi": 1656, "00002.clpi": 1016, "00003.clpi": 656, "00004.clpi": 1784, "00005.clpi": 1744, "00006.clpi ...
创建时间: 2021-10-18 13:20:47 大小:60.74 GB 文件数量:68 热度:109 最近下载:2025-10-17 02:48:01
    ... ": 104}, "全球所有4K UHD原盘电影 ...
创建时间: 2021-11-12 08:10:05 大小:60.74 GB 文件数量:70 热度:108 最近下载:2025-09-19 07:29:02
    {"www.YTS.MX.jpg": 53226, "YIFYStatus.com.txt": 358, "The.Transformers.The.Movie.1986.2160p.4K.BluRay.x265.10bit.HDR.AAC5.1-[YTS.MX].mkv": 4100744801}
创建时间: 2021-11-15 12:50:11 大小:3.82 GB 文件数量:3 热度:10 最近下载:2025-09-27 13:29:01
    {"[CookieSubs] Violet Evergarden - The Movie (2020) (BD 4K HDR10 HEVC TrueHD Atmos).mkv": 13179549824}
创建时间: 2021-11-24 21:54:59 大小:12.27 GB 文件数量:1 热度:15 最近下载:2025-07-24 12:54:02